Location: Unspecified
(0.0000°N, 0.0000°E)
Time: 12:08:33
(UTC+02:00)

Cosmos 773 Rocket - Visible Passes

Search period start: 04 July 2015 00:00
Search period end: 14 July 2015 00:00
Orbit: 747 x 777 km, 74.1° (Epoch: 04 July)

Date Brightness Start Highest point End Pass type
(mag) Time Alt. Az. Time Alt. Az. Time Alt. Az.
04 Jul 6.7 06:06:10 10° SE 06:08:17 13° ESE 06:10:47 10° ENE visible
05 Jul 3.9 07:06:05 10° SSW 07:11:18 77° WNW 07:16:27 10° N visible
06 Jul 4.8 06:27:51 12° S 06:32:25 48° ESE 06:37:24 10° NNE visible
07 Jul 6.1 05:50:40 14° SE 05:53:29 22° ESE 05:57:31 10° NE visible
07 Jul 5.3 07:31:24 10° SW 07:35:18 21° WNW 07:38:59 10° NNW visible
08 Jul 4.3 06:53:40 24° SW 06:56:23 44° WNW 07:01:15 10° N visible
09 Jul 3.9 06:16:24 56° S 06:17:31 83° ESE 06:22:39 10° NNE visible
10 Jul 5.3 05:39:05 36° E 05:39:05 36° E 05:43:23 10° NE visible
10 Jul 5.8 07:19:16 11° W 07:20:29 12° WNW 07:22:07 10° WNW visible
11 Jul 6.7 05:01:42 14° ENE 05:01:42 14° ENE 05:03:07 10° ENE visible
11 Jul 5.1 06:41:54 26° WNW 06:41:54 26° WNW 06:45:41 10° NNW visible
12 Jul 4.9 06:04:27 36° NNW 06:04:27 36° NNW 06:07:38 10° N visible
13 Jul 6.0 05:26:57 23° NNE 05:26:57 23° NNE 05:28:49 10° NNE visible
